Home   Weather   Ajaccio   Past weeks

Flag for France Past Weather in Ajaccio, Corsica, France — Yesterday and Last 2 Weeks

63 °F

Passing clouds.

Feels Like: 63 °F
Forecast: 51 / 65 °F
Wind: 3 mph from Northeast

Location: Ajaccio Airport

Current Time: Oct 21, 2016 at 11:18:55 AM

Latest Report: Oct 21, 2016 at 11:00 AM

Visibility: N/A

Pressure: 29.89 "Hg

Humidity: 59%

Dew Point: 48 °F

Location of AjaccioLocation

Past Weather in Ajaccio — Graph


Ajaccio Temperature Yesterday

Maximum temperature yesterday: 68 °F (at 12:00 PM)
Minimum temperature yesterday: 54 °F (at 9:00 PM)
Average temperature yesterday: 60 °F

High & Low Weather Summary for the Past Weeks

High82 °F (Oct 14, 10:30 AM)94% (Oct 6, 8:00 PM)30.24 "Hg (Oct 6, 8:00 PM)
Low46 °F (Oct 12, 1:30 AM)42% (Oct 14, 10:30 AM)29.56 "Hg (Oct 14, 5:00 AM)
Average62 °F75%29.96 "Hg
* Reported Oct 6 10:00 AM — Oct 21 10:00 AM, Ajaccio, Weather by CustomWeather, © 2016

Note: Actual official high and low records may vary slightly from our data, if they occured in-between our weather recording intervals... More about our weather records


Ajaccio Weather History for the Previous 24 Hours

Scroll right to see more
Time TempWeatherWind HumidityBarometerVisibility
10:00 AM
Fri, Oct 21
59 °FPassing clouds.5 mph68%29.89 "HgN/A
9:30 AM55 °FPassing clouds.3 mph72%29.89 "HgN/A
9:00 AM52 °FPassing clouds.8 mph82%29.86 "HgN/A
8:30 AM50 °FPassing clouds.7 mph82%29.86 "HgN/A
8:00 AM50 °FPassing clouds.7 mph82%29.86 "HgN/A
7:30 AM50 °FPassing clouds.7 mph82%29.86 "HgN/A
7:00 AM50 °FPassing clouds.8 mph82%29.86 "HgN/A
6:30 AM50 °FPassing clouds.6 mph88%29.86 "HgN/A
6:00 AM52 °FPassing clouds.6 mph82%29.86 "HgN/A
5:30 AM52 °FPartly cloudy.7 mph82%29.86 "HgN/A
5:00 AM52 °FPassing clouds.6 mph82%29.86 "HgN/A
4:30 AM52 °FPassing clouds.6 mph82%29.89 "HgN/A
4:00 AM52 °FCool.7 mph88%29.89 "HgN/A
3:30 AM54 °FPassing clouds.5 mph82%29.89 "HgN/A
3:00 AM54 °FPassing clouds.5 mph82%29.89 "HgN/A
2:30 AM55 °FPassing clouds.5 mph77%29.89 "HgN/A
2:00 AM54 °FPartly cloudy.6 mph82%29.89 "HgN/A
1:30 AM55 °FPassing clouds.7 mph77%29.92 "HgN/A
1:00 AM55 °FPartly cloudy.5 mph77%29.92 "HgN/A
12:30 AM55 °FPassing clouds.6 mph77%29.92 "HgN/A
12:00 AM57 °FPassing clouds.7 mph72%29.92 "HgN/A
11:30 PM
Thu, Oct 20
55 °FOvercast.6 mph77%29.92 "HgN/A
11:00 PM55 °FPartly cloudy.7 mph77%29.92 "HgN/A
10:30 PM54 °FPassing clouds.6 mph82%29.92 "HgN/A
10:00 PM54 °FPassing clouds.7 mph82%29.92 "HgN/A
9:30 PM54 °FPartly cloudy.6 mph82%29.92 "HgN/A
9:00 PM54 °FPassing clouds.7 mph82%29.92 "HgN/A
8:30 PM55 °FCool.7 mph77%29.92 "HgN/A
8:00 PM57 °FPassing clouds.5 mph72%29.92 "HgN/A
7:30 PM57 °FPassing clouds.3 mph72%29.92 "HgN/A
7:00 PM59 °FPassing clouds.3 mph68%29.92 "HgN/A
6:30 PM61 °FRefreshingly cool.3 mph59%29.92 "HgN/A
6:00 PM63 °FPassing clouds.7 mph59%29.92 "HgN/A
5:30 PM63 °FPassing clouds.8 mph59%29.92 "HgN/A
5:00 PM64 °FPassing clouds.8 mph56%29.92 "HgN/A
4:30 PM66 °FPassing clouds.8 mph52%29.92 "HgN/A
4:00 PM66 °FPassing clouds.8 mph52%29.92 "HgN/A
3:30 PM66 °FPassing clouds.9 mph52%29.92 "HgN/A
3:00 PM66 °FPassing clouds.10 mph56%29.92 "HgN/A
2:30 PM66 °FPassing clouds.10 mph56%29.92 "HgN/A
2:00 PM66 °FPassing clouds.10 mph52%29.92 "HgN/A
1:30 PM66 °FPassing clouds.9 mph52%29.92 "HgN/A
1:00 PM66 °FScattered clouds.10 mph56%29.95 "HgN/A
12:30 PM66 °FScattered clouds.10 mph56%29.95 "HgN/A
12:00 PM68 °FScattered clouds.9 mph53%29.95 "HgN/A
11:30 AM66 °FScattered clouds.8 mph56%29.95 "HgN/A
11:00 AM66 °FScattered clouds.3 mph56%29.95 "HgN/A
Weather by CustomWeather, © 2016

See weather overviewHow to use our weather pages